QPF
0.00 0.00 0.01 0.01 0.01 0.01 0.01 0.01 0.01 0.01 0.01 0.01 0.01 0.01 0.01 0.01 0.01 0.01 0.01 0.00 0.00 0.00 0.00 0.00 0.00 0.01 0.02 0.03 0.04 0.07 0.12 0.15 0.19 0.24 0.24 0.22 0.21 0.20 0.17 0.14 0.14 0.12 0.13
0.00 0.00 0.00 0.00 0.00 0.00 0.00 0.00 0.00 0.00 0.01 0.01 0.01 0.00 0.00 0.00 0.00 0.00 0.00 0.00 0.00 0.00 0.00 0.00 0.00 0.00 0.00 0.01 0.03 0.06 0.09 0.10 0.14 0.20 0.23 0.24 0.22 0.19 0.12 0.11 0.10 0.08 0.11
0.00 0.00 0.00 0.00 0.00 0.00 0.00 0.00 0.00 0.00 0.00 0.00 0.00 0.00 0.00 0.00 0.00 0.00 0.00 0.00 0.00 0.00 0.00 0.00 0.00 0.00 0.00 0.01 0.02 0.03 0.05 0.06 0.11 0.20 0.28 0.25 0.20 0.17 0.15 0.13 0.10 0.09 0.11
0.00 0.00 0.00 0.00 0.00 0.00 0.00 0.00 0.00 0.00 0.00 0.00 0.00 0.00 0.00 0.00 0.00 0.00 0.00 0.00 0.00 0.00 0.00 0.00 0.00 0.00 0.00 0.01 0.03 0.04 0.06 0.07 0.09 0.13 0.19 0.22 0.21 0.18 0.14 0.14 0.14 0.12 0.12
0.00 0.00 0.00 0.00 0.00 0.00 0.00 0.00 0.00 0.00 0.00 0.00 0.00 0.00 0.00 0.00 0.00 0.00 0.00 0.00 0.00 0.00 0.00 0.00 0.00 0.01 0.01 0.01 0.02 0.03 0.05 0.10 0.14 0.14 0.16 0.17 0.17 0.15 0.13 0.13 0.15 0.13 0.09
0.00 0.00 0.00 0.00 0.00 0.00 0.00 0.00 0.00 0.00 0.00 0.00 0.00 0.00 0.00 0.00 0.00 0.00 0.00 0.00 0.00 0.00 0.00 0.00 0.00 0.00 0.00 0.00 0.01 0.01 0.02 0.05 0.11 0.13 0.15 0.18 0.18 0.15 0.12 0.12 0.12 0.11 0.09
0.00 0.00 0.00 0.00 0.00 0.00 0.00 0.00 0.00 0.00 0.00 0.00 0.00 0.00 0.00 0.00 0.00 0.00 0.00 0.00 0.00 0.00 0.00 0.00 0.00 0.00 0.00 0.00 0.00 0.01 0.02 0.03 0.05 0.06 0.08 0.12 0.15 0.17 0.16 0.13 0.12 0.12 0.11
0.00 0.00 0.00 0.00 0.00 0.00 0.00 0.00 0.00 0.00 0.00 0.00 0.00 0.00 0.00 0.00 0.00 0.00 0.00 0.00 0.00 0.00 0.00 0.00 0.00 0.00 0.00 0.00 0.00 0.00 0.00 0.01 0.03 0.05 0.07 0.08 0.09 0.13 0.17 0.17 0.16 0.15 0.13
0.00 0.00 0.00 0.00 0.00 0.00 0.00 0.00 0.00 0.00 0.00 0.00 0.00 0.00 0.00 0.00 0.00 0.00 0.00 0.00 0.00 0.00 0.00 0.00 0.00 0.00 0.00 0.00 0.00 0.00 0.00 0.00 0.00 0.01 0.04 0.07 0.07 0.08 0.13 0.17 0.19 0.21 0.18
0.00 0.00 0.00 0.00 0.00 0.00 0.00 0.00 0.00 0.00 0.00 0.00 0.00 0.00 0.00 0.00 0.00 0.00 0.00 0.00 0.00 0.00 0.00 0.00 0.00 0.00 0.00 0.00 0.00 0.00 0.00 0.00 0.00 0.00 0.01 0.03 0.05 0.06 0.09 0.14 0.17 0.20 0.22
0.00 0.00 0.00 0.00 0.00 0.00 0.00 0.00 0.00 0.00 0.00 0.00 0.00 0.00 0.00 0.00 0.00 0.00 0.00 0.00 0.00 0.00 0.00 0.00 0.00 0.00 0.00 0.00 0.00 0.00 0.00 0.00 0.00 0.00 0.00 0.01 0.03 0.05 0.07 0.12 0.16 0.17 0.21
0.00 0.00 0.00 0.00 0.00 0.00 0.00 0.00 0.00 0.00 0.00 0.00 0.00 0.00 0.00 0.00 0.00 0.00 0.00 0.00 0.00 0.00 0.00 0.00 0.00 0.00 0.00 0.00 0.00 0.00 0.00 0.01 0.00 0.01 0.01 0.01 0.01 0.03 0.05 0.09 0.13 0.15 0.19
0.00 0.00 0.00 0.00 0.00 0.00 0.00 0.00 0.00 0.00 0.00 0.00 0.00 0.00 0.00 0.00 0.00 0.00 0.00 0.00 0.00 0.00 0.00 0.00 0.00 0.00 0.00 0.00 0.00 0.00 0.00 0.01 0.00 0.00 0.01 0.01 0.01 0.02 0.03 0.05 0.09 0.12 0.16
0.00 0.00 0.00 0.00 0.00 0.00 0.00 0.00 0.00 0.00 0.00 0.00 0.00 0.00 0.00 0.00 0.00 0.00 0.00 0.00 0.00 0.00 0.00 0.00 0.00 0.00 0.00 0.00 0.00 0.01 0.01 0.01 0.01 0.00 0.00 0.00 0.01 0.01 0.02 0.03 0.06 0.10 0.14
0.00 0.00 0.00 0.00 0.00 0.00 0.00 0.00 0.00 0.00 0.00 0.00 0.00 0.00 0.00 0.00 0.00 0.00 0.00 0.00 0.00 0.00 0.00 0.00 0.00 0.00 0.00 0.00 0.00 0.01 0.01 0.01 0.01 0.01 0.01 0.00 0.01 0.01 0.02 0.02 0.03 0.08 0.12
0.00 0.00 0.00 0.00 0.00 0.00 0.00 0.00 0.00 0.00 0.00 0.00 0.00 0.00 0.00 0.00 0.00 0.00 0.00 0.00 0.00 0.00 0.00 0.00 0.00 0.00 0.00 0.00 0.00 0.01 0.01 0.02 0.02 0.01 0.01 0.01 0.01 0.01 0.02 0.02 0.02 0.04 0.09
0.00 0.00 0.00 0.00 0.00 0.00 0.00 0.00 0.00 0.00 0.00 0.00 0.00 0.00 0.00 0.00 0.00 0.00 0.00 0.00 0.00 0.00 0.00 0.00 0.00 0.00 0.00 0.00 0.01 0.01 0.02 0.02 0.02 0.02 0.02 0.01 0.01 0.01 0.01 0.02 0.02 0.03 0.05
0.00 0.00 0.00 0.00 0.00 0.00 0.00 0.00 0.00 0.00 0.00 0.00 0.00 0.00 0.00 0.00 0.00 0.00 0.00 0.00 0.00 0.00 0.00 0.00 0.00 0.00 0.00 0.00 0.00 0.01 0.01 0.02 0.02 0.02 0.02 0.01 0.02 0.02 0.03 0.02 0.02 0.02 0.03
0.00 0.00 0.00 0.00 0.00 0.00 0.00 0.00 0.00 0.00 0.00 0.00 0.00 0.00 0.00 0.00 0.00 0.00 0.00 0.00 0.01 0.00 0.00 0.00 0.01 0.01 0.01 0.01 0.00 0.01 0.01 0.01 0.02 0.03 0.02 0.02 0.02 0.02 0.03 0.03 0.03 0.02 0.03
0.00 0.00 0.00 0.00 0.00 0.00 0.00 0.00 0.00 0.00 0.00 0.00 0.00 0.00 0.00 0.00 0.00 0.00 0.00 0.00 0.01 0.01 0.00 0.01 0.01 0.01 0.01 0.01 0.00 0.01 0.01 0.02 0.02 0.03 0.03 0.03 0.03 0.03 0.03 0.04 0.04 0.03 0.03
0.00 0.00 0.00 0.00 0.00 0.00 0.00 0.00 0.00 0.00 0.00 0.00 0.00 0.00 0.00 0.00 0.00 0.01 0.01 0.01 0.01 0.01 0.01 0.01 0.01 0.01 0.01 0.00 0.00 0.00 0.01 0.02 0.02 0.03 0.04 0.04 0.04 0.04 0.04 0.04 0.04 0.03 0.04
0.00 0.00 0.00 0.00 0.00 0.00 0.00 0.00 0.00 0.00 0.00 0.00 0.00 0.00 0.00 0.00 0.00 0.00 0.01 0.01 0.02 0.02 0.01 0.01 0.01 0.01 0.01 0.01 0.00 0.00 0.01 0.02 0.03 0.05 0.07 0.06 0.06 0.06 0.06 0.05 0.05 0.04 0.05
0.00 0.00 0.00 0.00 0.00 0.00 0.00 0.00 0.00 0.00 0.00 0.00 0.00 0.00 0.00 0.00 0.01 0.01 0.01 0.01 0.02 0.02 0.01 0.01 0.01 0.01 0.02 0.01 0.00 0.00 0.01 0.01 0.03 0.05 0.07 0.07 0.07 0.06 0.05 0.04 0.05 0.04 0.04
0.00 0.00 0.00 0.00 0.00 0.00 0.00 0.00 0.00 0.00 0.00 0.00 0.00 0.00 0.00 0.00 0.01 0.01 0.02 0.02 0.02 0.02 0.02 0.01 0.01 0.01 0.01 0.01 0.01 0.01 0.01 0.01 0.02 0.03 0.04 0.06 0.08 0.07 0.05 0.04 0.04 0.03 0.03
0.00 0.00 0.00 0.00 0.00 0.00 0.00 0.00 0.00 0.00 0.00 0.00 0.00 0.00 0.00 0.00 0.01 0.01 0.02 0.02 0.02 0.02 0.01 0.01 0.01 0.01 0.01 0.01 0.00 0.01 0.01 0.01 0.02 0.03 0.05 0.06 0.07 0.06 0.05 0.03 0.02 0.02 0.02
0.00 0.00 0.00 0.00 0.00 0.00 0.00 0.00 0.00 0.00 0.00 0.00 0.00 0.00 0.00 0.01 0.01 0.01 0.01 0.02 0.01 0.01 0.01 0.01 0.01 0.01 0.01 0.01 0.00 0.00 0.00 0.01 0.01 0.02 0.04 0.06 0.06 0.06 0.05 0.04 0.02 0.02 0.01
MSLP
1015.52 1015.35 1015.22 1015.08 1014.93 1014.76 1014.58 1014.43 1014.33 1014.31 1014.38 1014.53 1014.71 1014.88 1014.99 1015.00 1014.88 1014.65 1014.33 1013.98 1013.67 1013.44 1013.34 1013.37 1013.50 1013.67 1013.84 1013.91 1013.86 1013.64 1013.27 1012.77 1012.20 1011.64 1011.12 1010.70 1010.40 1010.22 1010.15 1010.17 1010.25 1010.38 1010.54
1015.29 1015.15 1015.03 1014.91 1014.76 1014.59 1014.42 1014.30 1014.26 1014.32 1014.49 1014.72 1014.99 1015.21 1015.33 1015.31 1015.13 1014.81 1014.39 1013.95 1013.56 1013.28 1013.14 1013.15 1013.28 1013.47 1013.64 1013.72 1013.68 1013.48 1013.13 1012.67 1012.14 1011.61 1011.13 1010.73 1010.42 1010.22 1010.10 1010.05 1010.04 1010.07 1010.14
1014.90 1014.83 1014.78 1014.70 1014.59 1014.45 1014.31 1014.22 1014.23 1014.35 1014.57 1014.86 1015.17 1015.42 1015.54 1015.50 1015.27 1014.89 1014.41 1013.91 1013.46 1013.13 1012.95 1012.94 1013.04 1013.21 1013.37 1013.46 1013.42 1013.25 1012.95 1012.55 1012.10 1011.65 1011.24 1010.90 1010.62 1010.41 1010.25 1010.11 1010.00 1009.92 1009.86
1014.48 1014.51 1014.54 1014.55 1014.50 1014.40 1014.29 1014.23 1014.25 1014.38 1014.62 1014.92 1015.23 1015.48 1015.59 1015.53 1015.28 1014.87 1014.36 1013.83 1013.36 1013.00 1012.79 1012.74 1012.80 1012.93 1013.06 1013.13 1013.11 1012.97 1012.73 1012.42 1012.07 1011.73 1011.42 1011.14 1010.91 1010.70 1010.50 1010.30 1010.09 1009.87 1009.69
1014.14 1014.27 1014.42 1014.51 1014.53 1014.47 1014.38 1014.31 1014.31 1014.41 1014.61 1014.88 1015.16 1015.37 1015.47 1015.39 1015.14 1014.74 1014.24 1013.72 1013.25 1012.89 1012.66 1012.57 1012.59 1012.66 1012.75 1012.79 1012.76 1012.66 1012.48 1012.25 1012.01 1011.78 1011.57 1011.38 1011.20 1011.00 1010.78 1010.51 1010.21 1009.89 1009.59
1013.94 1014.18 1014.42 1014.61 1014.68 1014.66 1014.57 1014.47 1014.41 1014.44 1014.56 1014.75 1014.96 1015.13 1015.19 1015.11 1014.88 1014.52 1014.07 1013.59 1013.15 1012.80 1012.56 1012.44 1012.40 1012.42 1012.44 1012.45 1012.40 1012.31 1012.18 1012.03 1011.89 1011.76 1011.64 1011.53 1011.40 1011.22 1010.98 1010.67 1010.31 1009.91 1009.52
1013.89 1014.22 1014.55 1014.80 1014.92 1014.91 1014.80 1014.64 1014.51 1014.45 1014.47 1014.55 1014.68 1014.78 1014.81 1014.74 1014.54 1014.23 1013.85 1013.44 1013.05 1012.73 1012.49 1012.34 1012.25 1012.20 1012.16 1012.11 1012.03 1011.94 1011.84 1011.75 1011.67 1011.62 1011.58 1011.52 1011.43 1011.28 1011.04 1010.71 1010.32 1009.89 1009.46
1013.97 1014.36 1014.74 1015.02 1015.16 1015.15 1015.01 1014.80 1014.59 1014.42 1014.33 1014.31 1014.34 1014.38 1014.38 1014.31 1014.15 1013.91 1013.60 1013.27 1012.95 1012.67 1012.43 1012.26 1012.12 1012.00 1011.89 1011.78 1011.66 1011.55 1011.45 1011.38 1011.35 1011.34 1011.35 1011.33 1011.27 1011.14 1010.91 1010.60 1010.22 1009.80 1009.38
1014.13 1014.53 1014.93 1015.21 1015.34 1015.31 1015.14 1014.88 1014.59 1014.34 1014.16 1014.05 1014.00 1013.98 1013.95 1013.89 1013.76 1013.58 1013.34 1013.09 1012.82 1012.58 1012.35 1012.15 1011.97 1011.79 1011.61 1011.44 1011.27 1011.12 1011.01 1010.94 1010.92 1010.93 1010.95 1010.96 1010.92 1010.81 1010.62 1010.35 1010.01 1009.65 1009.29
1014.30 1014.68 1015.04 1015.30 1015.41 1015.34 1015.14 1014.84 1014.52 1014.21 1013.97 1013.79 1013.68 1013.61 1013.56 1013.49 1013.39 1013.24 1013.07 1012.86 1012.65 1012.43 1012.21 1011.99 1011.77 1011.54 1011.30 1011.07 1010.85 1010.67 1010.53 1010.44 1010.41 1010.41 1010.44 1010.45 1010.42 1010.34 1010.19 1009.97 1009.71 1009.44 1009.18
1014.43 1014.76 1015.05 1015.25 1015.31 1015.22 1014.99 1014.68 1014.34 1014.02 1013.74 1013.53 1013.38 1013.28 1013.20 1013.12 1013.02 1012.90 1012.75 1012.57 1012.38 1012.18 1011.96 1011.73 1011.48 1011.21 1010.94 1010.66 1010.41 1010.18 1010.01 1009.90 1009.85 1009.83 1009.84 1009.85 1009.83 1009.77 1009.66 1009.51 1009.34 1009.17 1009.02
1014.49 1014.73 1014.94 1015.06 1015.06 1014.93 1014.70 1014.40 1014.07 1013.76 1013.49 1013.27 1013.10 1012.98 1012.87 1012.76 1012.65 1012.51 1012.36 1012.19 1012.01 1011.81 1011.59 1011.35 1011.08 1010.80 1010.50 1010.20 1009.92 1009.68 1009.48 1009.34 1009.26 1009.22 1009.21 1009.21 1009.20 1009.16 1009.10 1009.01 1008.93 1008.85 1008.81
1014.47 1014.61 1014.71 1014.74 1014.68 1014.52 1014.29 1014.02 1013.72 1013.45 1013.20 1013.00 1012.82 1012.67 1012.53 1012.39 1012.24 1012.08 1011.90 1011.72 1011.53 1011.32 1011.10 1010.86 1010.59 1010.30 1010.00 1009.69 1009.40 1009.14 1008.93 1008.78 1008.67 1008.61 1008.58 1008.57 1008.56 1008.54 1008.51 1008.48 1008.47 1008.48 1008.52
1014.37 1014.40 1014.40 1014.34 1014.22 1014.03 1013.81 1013.56 1013.32 1013.09 1012.88 1012.70 1012.52 1012.35 1012.18 1011.99 1011.79 1011.58 1011.37 1011.15 1010.94 1010.73 1010.50 1010.26 1010.01 1009.73 1009.43 1009.13 1008.85 1008.59 1008.37 1008.20 1008.07 1008.00 1007.95 1007.93 1007.92 1007.92 1007.92 1007.93 1007.96 1008.02 1008.13
1014.21 1014.14 1014.04 1013.89 1013.71 1013.50 1013.29 1013.08 1012.88 1012.70 1012.54 1012.37 1012.20 1012.01 1011.79 1011.55 1011.30 1011.04 1010.78 1010.53 1010.29 1010.06 1009.84 1009.61 1009.36 1009.10 1008.82 1008.53 1008.25 1007.99 1007.77 1007.59 1007.45 1007.36 1007.30 1007.28 1007.27 1007.27 1007.29 1007.33 1007.39 1007.48 1007.62
1013.98 1013.83 1013.64 1013.43 1013.20 1012.97 1012.77 1012.59 1012.44 1012.31 1012.18 1012.03 1011.86 1011.65 1011.39 1011.10 1010.79 1010.47 1010.17 1009.88 1009.62 1009.37 1009.15 1008.92 1008.69 1008.44 1008.17 1007.89 1007.62 1007.35 1007.12 1006.92 1006.77 1006.67 1006.60 1006.57 1006.57 1006.59 1006.62 1006.67 1006.75 1006.86 1007.00
1013.70 1013.49 1013.23 1012.96 1012.70 1012.47 1012.28 1012.13 1012.02 1011.93 1011.83 1011.69 1011.52 1011.28 1010.99 1010.65 1010.29 1009.92 1009.57 1009.24 1008.96 1008.70 1008.46 1008.24 1008.00 1007.76 1007.49 1007.22 1006.93 1006.66 1006.41 1006.19 1006.03 1005.91 1005.84 1005.81 1005.81 1005.85 1005.90 1005.97 1006.07 1006.18 1006.32
1013.36 1013.11 1012.81 1012.51 1012.24 1012.01 1011.84 1011.72 1011.64 1011.57 1011.49 1011.37 1011.18 1010.93 1010.60 1010.23 1009.82 1009.41 1009.01 1008.65 1008.33 1008.05 1007.80 1007.56 1007.32 1007.07 1006.80 1006.50 1006.20 1005.91 1005.63 1005.40 1005.21 1005.09 1005.01 1004.99 1005.01 1005.07 1005.15 1005.25 1005.36 1005.48 1005.62
1012.98 1012.70 1012.39 1012.08 1011.81 1011.60 1011.45 1011.35 1011.30 1011.25 1011.19 1011.06 1010.87 1010.60 1010.24 1009.83 1009.39 1008.93 1008.50 1008.10 1007.75 1007.44 1007.16 1006.90 1006.64 1006.37 1006.08 1005.77 1005.45 1005.13 1004.83 1004.58 1004.38 1004.24 1004.17 1004.16 1004.21 1004.29 1004.41 1004.54 1004.69 1004.83 1004.98
1012.56 1012.28 1011.98 1011.69 1011.44 1011.24 1011.11 1011.04 1011.01 1010.97 1010.91 1010.78 1010.58 1010.28 1009.90 1009.46 1008.98 1008.48 1008.01 1007.57 1007.18 1006.84 1006.53 1006.25 1005.96 1005.67 1005.36 1005.03 1004.70 1004.36 1004.05 1003.78 1003.57 1003.44 1003.37 1003.38 1003.46 1003.58 1003.74 1003.92 1004.10 1004.28 1004.46
1012.12 1011.87 1011.60 1011.34 1011.12 1010.95 1010.84 1010.78 1010.75 1010.72 1010.65 1010.51 1010.28 1009.97 1009.56 1009.09 1008.57 1008.04 1007.52 1007.04 1006.61 1006.23 1005.89 1005.58 1005.28 1004.98 1004.66 1004.33 1003.99 1003.66 1003.35 1003.08 1002.88 1002.75 1002.70 1002.74 1002.84 1003.00 1003.20 1003.42 1003.64 1003.87 1004.07
1011.68 1011.49 1011.26 1011.04 1010.85 1010.71 1010.61 1010.56 1010.53 1010.48 1010.39 1010.23 1009.98 1009.64 1009.20 1008.69 1008.13 1007.56 1007.01 1006.49 1006.02 1005.60 1005.23 1004.91 1004.60 1004.30 1004.00 1003.69 1003.38 1003.07 1002.79 1002.55 1002.37 1002.26 1002.22 1002.27 1002.40 1002.58 1002.81 1003.07 1003.33 1003.59 1003.83
1011.26 1011.13 1010.96 1010.79 1010.63 1010.51 1010.42 1010.37 1010.32 1010.25 1010.13 1009.94 1009.65 1009.27 1008.80 1008.26 1007.67 1007.06 1006.46 1005.90 1005.40 1004.96 1004.57 1004.24 1003.95 1003.68 1003.42 1003.16 1002.90 1002.65 1002.42 1002.22 1002.07 1001.98 1001.96 1002.02 1002.15 1002.35 1002.59 1002.86 1003.14 1003.42 1003.69
1010.86 1010.79 1010.69 1010.56 1010.44 1010.34 1010.25 1010.18 1010.11 1010.00 1009.85 1009.62 1009.30 1008.88 1008.37 1007.80 1007.17 1006.53 1005.90 1005.31 1004.78 1004.32 1003.94 1003.62 1003.36 1003.14 1002.94 1002.75 1002.57 1002.40 1002.23 1002.09 1001.98 1001.92 1001.91 1001.97 1002.09 1002.27 1002.49 1002.76 1003.03 1003.32 1003.59
1010.45 1010.46 1010.41 1010.34 1010.25 1010.16 1010.07 1009.98 1009.88 1009.74 1009.54 1009.27 1008.92 1008.47 1007.93 1007.33 1006.67 1006.01 1005.35 1004.74 1004.20 1003.74 1003.37 1003.08 1002.86 1002.70 1002.58 1002.48 1002.39 1002.30 1002.21 1002.12 1002.06 1002.01 1002.00 1002.04 1002.13 1002.27 1002.46 1002.69 1002.94 1003.20 1003.46
1010.00 1010.08 1010.10 1010.08 1010.02 1009.95 1009.86 1009.75 1009.62 1009.45 1009.22 1008.92 1008.54 1008.06 1007.51 1006.88 1006.22 1005.54 1004.87 1004.26 1003.71 1003.26 1002.91 1002.65 1002.49 1002.39 1002.34 1002.32 1002.31 1002.30 1002.28 1002.24 1002.20 1002.17 1002.15 1002.15 1002.20 1002.28 1002.41 1002.58 1002.79 1003.01 1003.25
Thickness
5740 5741 5740 5739 5737 5734 5732 5729 5726 5723 5719 5715 5711 5707 5704 5703 5702 5701 5700 5698 5697 5696 5695 5694 5692 5691 5690 5691 5692 5693 5695 5697 5699 5699 5702 5707 5710 5712 5714 5715 5716 5719 5721
5734 5735 5734 5734 5732 5729 5726 5723 5720 5717 5713 5709 5704 5700 5697 5694 5692 5690 5689 5688 5687 5686 5686 5685 5683 5682 5682 5682 5682 5683 5684 5687 5690 5690 5690 5693 5699 5706 5711 5713 5714 5717 5720
5731 5731 5731 5730 5728 5726 5723 5721 5716 5712 5708 5703 5698 5693 5689 5685 5682 5680 5679 5679 5678 5677 5676 5676 5675 5675 5674 5673 5673 5674 5675 5676 5680 5682 5682 5683 5686 5695 5703 5708 5712 5715 5717
5733 5731 5730 5727 5726 5724 5722 5717 5711 5706 5701 5696 5690 5684 5678 5673 5671 5670 5669 5669 5668 5668 5668 5668 5668 5667 5666 5665 5665 5666 5666 5667 5668 5672 5676 5679 5682 5682 5689 5700 5706 5711 5713
5732 5730 5729 5727 5725 5722 5716 5710 5705 5699 5693 5688 5683 5677 5671 5667 5665 5662 5660 5659 5659 5658 5658 5658 5658 5657 5657 5656 5657 5657 5657 5658 5659 5662 5665 5669 5674 5677 5679 5685 5694 5702 5709
5732 5729 5728 5724 5718 5714 5709 5702 5696 5690 5685 5680 5675 5670 5665 5660 5656 5653 5651 5649 5648 5648 5648 5648 5648 5648 5647 5647 5648 5648 5649 5650 5652 5654 5656 5659 5663 5668 5672 5677 5683 5690 5700
5727 5723 5719 5714 5709 5705 5699 5693 5687 5681 5677 5672 5667 5663 5658 5654 5649 5646 5643 5640 5638 5637 5637 5638 5637 5637 5637 5638 5638 5639 5640 5642 5644 5646 5648 5652 5656 5661 5665 5668 5673 5680 5690
5721 5718 5713 5707 5702 5698 5692 5686 5680 5674 5669 5665 5660 5656 5652 5647 5642 5639 5636 5633 5630 5629 5629 5628 5628 5628 5628 5629 5629 5630 5631 5634 5636 5638 5641 5643 5648 5652 5656 5661 5664 5669 5677
5715 5711 5706 5701 5696 5691 5685 5680 5674 5668 5663 5659 5654 5649 5645 5640 5636 5633 5629 5626 5624 5623 5622 5620 5619 5619 5619 5619 5620 5620 5622 5624 5627 5629 5632 5635 5639 5644 5648 5653 5657 5660 5665
5708 5705 5700 5695 5691 5686 5680 5675 5669 5663 5658 5653 5648 5644 5639 5634 5630 5625 5621 5618 5616 5614 5613 5611 5610 5609 5609 5609 5610 5611 5613 5614 5617 5620 5623 5627 5631 5635 5640 5645 5650 5654 5659
5703 5699 5695 5692 5687 5681 5675 5669 5663 5658 5652 5647 5642 5637 5632 5628 5623 5618 5614 5611 5608 5606 5604 5602 5601 5600 5599 5599 5599 5600 5602 5604 5607 5610 5613 5617 5621 5626 5631 5636 5641 5647 5652
5701 5697 5692 5687 5682 5676 5670 5665 5659 5653 5648 5643 5637 5631 5626 5621 5616 5611 5608 5604 5601 5598 5596 5594 5592 5591 5590 5590 5589 5590 5592 5593 5595 5599 5602 5607 5612 5616 5621 5626 5632 5638 5645
5698 5692 5687 5682 5677 5672 5666 5660 5655 5649 5644 5638 5632 5625 5620 5614 5609 5605 5601 5597 5594 5591 5588 5585 5583 5581 5581 5580 5579 5580 5581 5583 5585 5588 5591 5596 5599 5604 5610 5616 5622 5629 5637
5693 5688 5682 5677 5672 5667 5662 5657 5651 5646 5640 5633 5626 5620 5614 5609 5604 5600 5596 5591 5587 5584 5580 5577 5575 5573 5572 5571 5570 5570 5570 5572 5574 5577 5580 5584 5588 5593 5599 5606 5612 5619 5626
5690 5686 5679 5673 5668 5663 5658 5653 5647 5641 5635 5628 5621 5615 5610 5605 5599 5594 5590 5586 5581 5578 5574 5570 5567 5565 5563 5563 5561 5560 5560 5560 5561 5564 5568 5572 5577 5583 5588 5595 5602 5608 5615
5689 5684 5679 5672 5666 5660 5655 5649 5643 5637 5631 5623 5617 5612 5606 5600 5594 5589 5585 5580 5576 5572 5568 5564 5561 5558 5558 5557 5554 5551 5549 5548 5548 5550 5554 5558 5564 5570 5577 5585 5592 5599 5606
5688 5682 5676 5669 5663 5657 5652 5645 5639 5633 5626 5619 5613 5607 5601 5595 5589 5585 5580 5575 5570 5566 5562 5559 5555 5553 5551 5548 5545 5542 5539 5537 5537 5538 5540 5546 5553 5558 5563 5571 5580 5588 5597
5686 5680 5672 5666 5660 5655 5648 5642 5635 5628 5621 5615 5608 5602 5596 5590 5585 5579 5574 5569 5565 5561 5557 5554 5550 5547 5545 5542 5538 5535 5531 5528 5527 5528 5529 5533 5538 5545 5550 5557 5566 5575 5585
5684 5677 5671 5665 5658 5651 5645 5638 5630 5623 5616 5610 5603 5597 5591 5585 5580 5575 5570 5565 5561 5557 5553 5549 5546 5542 5539 5536 5532 5528 5523 5521 5520 5520 5521 5523 5528 5534 5539 5545 5554 5563 5572
5682 5675 5669 5662 5654 5648 5641 5633 5626 5618 5611 5606 5599 5593 5587 5581 5576 5571 5566 5562 5557 5553 5549 5545 5541 5536 5533 5530 5527 5522 5517 5514 5513 5512 5513 5516 5519 5524 5529 5535 5543 5552 5562
5681 5674 5666 5657 5651 5645 5637 5629 5621 5614 5609 5602 5595 5589 5583 5577 5572 5568 5563 5558 5553 5549 5544 5540 5536 5532 5529 5525 5522 5517 5511 5509 5507 5505 5505 5507 5511 5515 5521 5528 5536 5545 5553
5678 5671 5661 5653 5647 5641 5633 5624 5617 5612 5606 5598 5591 5585 5579 5574 5571 5564 5559 5554 5549 5544 5540 5535 5531 5527 5523 5520 5516 5512 5508 5504 5500 5499 5499 5501 5504 5509 5513 5520 5528 5536 5544
5673 5666 5657 5650 5643 5636 5629 5620 5615 5608 5601 5594 5586 5580 5576 5571 5566 5561 5556 5551 5546 5540 5536 5531 5526 5522 5518 5514 5511 5508 5504 5501 5497 5495 5496 5498 5500 5504 5508 5515 5522 5528 5536
5669 5661 5653 5645 5638 5632 5625 5618 5612 5605 5597 5589 5583 5578 5573 5569 5564 5558 5553 5548 5544 5539 5533 5528 5523 5517 5513 5509 5505 5502 5499 5498 5495 5493 5494 5495 5497 5500 5505 5510 5516 5524 5532
5664 5657 5649 5641 5634 5628 5621 5615 5608 5601 5593 5586 5580 5575 5570 5566 5561 5557 5552 5547 5543 5537 5531 5526 5520 5514 5510 5506 5502 5498 5496 5494 5493 5492 5491 5492 5493 5497 5501 5506 5512 5519 5526
5661 5653 5645 5638 5631 5624 5618 5612 5605 5597 5589 5582 5577 5573 5568 5564 5560 5556 5553 5550 5544 5539 5533 5526 5518 5513 5508 5504 5500 5496 5494 5493 5492 5491 5492 5494 5496 5499 5502 5507 5512 5517 5524